Weather in Belogornoye

Russia / Saratov Oblast     52°23′31″N   47°35′19″E
temp.,
°C
wind,
m/s
gust,
m/s
humid.,
%
clouds,
%
prec.,
mm/h
press.,
hPa
HPBL,
m
13 may, thu
thu1301:00+14nne228848 0.0 102116
04:00+12ne35893 0.0 102076
07:00+14e31087100 3.0 1020351
10:00+18ese5127597 3.7 1020606
13:00+23se81353100 0.1 10191569
16:00+25sse612495 0.1 10181948
19:00+22sse2365100 0.0 101836
22:00+17se337285 1.4 101930
14 may, fri
fri1401:00+15sse227951 0.0 102012
04:00+15e118397 0.0 102011
07:00+17e247969 0.0 1021129
10:00+23sse584967 0.0 1020530
13:00+26sse61037100 0.0 10201111
16:00+27s610390 0.0 10201407
19:00+24sse38525 0.0 1019184
22:00+19se335999 0.0 102028
15 may, sat
sat1501:00+17se2256100 0.0 102019
04:00+15se22568 0.0 102013
07:00+18se25575 0.0 1021168
10:00+23sse48385 0.0 1021452
13:00+27s69296 0.0 10201194
16:00+29s69305 0.0 10192120
19:00+25se364782 0.0 1018110
22:00+20se22515 0.0 101813
16 may, sun
sun1601:00+18se225629 0.0 101814
04:00+16se22615 0.0 101813
07:00+19se13605 0.0 1019118
10:00+24s474317 0.0 1018498
13:00+28s6103053 0.0 10181953
16:00+29ssw482811 0.0 10173069
19:00+26sse1145100 0.0 101611
22:00+22ese1145100 0.0 101711
17 may, mon
mon1701:00+20e114899 0.0 101711
04:00+20e115085 0.0 101811
07:00+22ese225457 0.0 101854
10:00+26se354011 0.0 1018472
13:00+29se45295 0.0 10171885
16:00+30se46267 0.0 10163412
19:00+26e33435 0.0 101648
22:00+21ese224923 0.0 101711